Regional Weather Roundup
Issued by NWS

Home | Current Version | Previous Version | Text Only | Print | Product List | Glossary Off
Versions: 1 2 3 4 5 6 7 8 9 10 11 12 13 14 15 16 17 18 19 20 21 22 23 24 25 26 27 28 29

000
ASUS45 KSLC 241910
RWRUT

UTAH REGIONAL WEATHER ROUNDUP
NATIONAL WEATHER SERVICE SALT LAKE CITY UT
100 PM MDT FRI OCT 24 2014

UTZ001>011-023>025-242000-

NORTHERN UTAH

CITY           SKY/WX    TMP DP  RH WIND       PRES   REMARKS
BRIGHAM CITY   SUNNY     67  32  26 SW5       30.19S
HILL AFB       SUNNY     70  35  27 S10       30.19F
LOGAN          SUNNY     63  37  38 CALM      30.18F
OGDEN          SUNNY     71  33  24 S10G16    30.17F
PROVO AIRPORT  SUNNY     73  34  23 S6        30.20F
SALT LAKE CITY SUNNY     76  31  19 S12G18    30.15F
VERNAL         SUNNY     60  38  43 S3        30.27F
WENDOVER       SUNNY     61  34  36 E7        30.17F
HEBER CITY     SUNNY     72  28  20 SW21      30.22F
WEST JORDAN    SUNNY     73  43  33 SE17G23   30.18F

$$

UTZ012>022-026-027-242000-

SOUTHERN/CENTRAL UTAH

CITY           SKY/WX    TMP DP  RH WIND       PRES   REMARKS
BLANDING       SUNNY     67  33  28 CALM      30.42F
BRYCE CANYON   SUNNY     63  33  32 SE16      30.40F
CEDAR CITY     SUNNY     74  28  18 SW17G24   30.25F
DELTA          SUNNY     75  28  17 S24       30.19F
HANKSVILLE       N/A     68  32  26 E5        30.27F
MILFORD        SUNNY     74  34  23 SW17      30.23F
MOAB/CYNLANDS  SUNNY     71  33  24 E7        30.24F
PRICE          SUNNY     65  32  29 SE8       30.32F
ST GEORGE      CLEAR     72  36  26 CALM      30.19F
KANAB            N/A     73  36  25 SW7       30.30F

$$

REGIONAL REPORTS     COLORADO/ARIZONA

CITY           SKY/WX    TMP DP  RH WIND       PRES   REMARKS
CRAIG, CO      SUNNY     72  28  19 SW16G23   30.29F
GRAND JUNCTION SUNNY     67  33  28 VRB5      30.28F
RIFLE          SUNNY     62  35  36 CALM      30.31F
MONTROSE       SUNNY     68  35  29 N6        30.33F
CORTEZ         SUNNY     71  32  23 S3        30.35F
PAGE, AZ       SUNNY     70  34  26 W5        30.26F
GRAND CANYON   SUNNY     71  26  18 VRB6      30.37F
KINGMAN        SUNNY     82  39  21 N6        30.17F
FLAGSTAFF      SUNNY     68  26  20 S8        30.40F

$$

REGIONAL REPORTS    NEVADA/IDAHO/WYOMING

CITY           SKY/WX    TMP DP  RH WIND       PRES   REMARKS
LAS VEGAS, NV  SUNNY     79  37  22 VRB3      30.07F
ELY            SUNNY     71  21  15 SW17G26   30.23F
ELKO           SUNNY     68  25  19 W7        30.13F
POCATELLO, ID  SUNNY     67  38  34 NW6       30.14F
BURLEY         SUNNY     70  36  28 SW6       30.09F
EVANSTON, WY   MOSUNNY   67  26  21 SW21G28   30.29S
ROCK SPRINGS   SUNNY     63  25  23 VRB5      30.27F
KEMMERER       SUNNY     63  25  23 W17       30.28F

$$



USA.gov is the U.S. government's official web portal to all federal, state and local government web resources and services.